Погода в Братолюбовке

Погода в Братолюбовке : погода сейчас, прогноз погоды и архив. Всё, что Вы хотите узнать о погоде в Братолюбовке!

Поиск расширенной информации на нашем сайте:

Другие новости

Новости СМИ2

Главная страница сайта

Новости сайта

02.10.2013

Напоминаем, что на нашем новом сайте вы можете получить высокодетализированные прогнозы погоды по пунктам России, СНГ и мира (включающие важные для авиации метеовеличины, такие как направление и скорость ветра, видимость, явления погоды, количество и форма облачности, нижняя и верхняя граница облачности), а также ознакомиться с разнообразными материалами по авиационной метеорологии и подборкой полезных ссылок на эту тему.

Сайт Метеоцентр.Азия посвящён разработке технологий оптимизации авиаметеорологического обслуживания, включая проектирование и перспективное создание нескольких автоматизированных авиаметеорологических систем:
- система выпуска высокодетальных прогностических карт явлений погоды для нижнего воздушного пространства по России и ближнему зарубежью;
- система верификации прогнозов TAF (выпускаемых синоптиками официальных АМСГ РФ и ближнего зарубежья) и AUTOTAF (выпускаемых сайтом Метеоцентр.Азия) - выявление ошибок, онлайн-сопоставление с фактической погодой METAR, автоматическое внесение коррективов в прогнозы при резком отклонении фактической погоды от прогноза, подсчёт оправдываемости прогнозов по элементам и в целом;
- система обработки, анализа и отображения авиаметеорологической информации для применения провайдерами метеорологической информации.

Рекомендуем: Перфоратор оптом купить оптом перфоратор lad-rostov.ru.

Погода в Братолюбовке - сегодня

Время (UTC), дата Ветер
(°,м/с) 
Видим.   Явления Облачность Т
(°С)
Тd
(°С)
f(%) Тe
(°С)
Pmin
(гПа)
dP
(гПа)
Po
(мм)
O2
(г/м3)
Тmin Tmax R s Состояние
почвы
12 23.04.17 110 (В) 26000 м    3/3 600 м 
[Sc]
+2.2 -0.3 84 +2  1011  0.7  737  295    +7.5     
15 23.04.17 080 (В) 30000 м    10/0 средняя 
[Ac und]
+1.9 +0.6 91 +3  1012.3  1.1  738  295           
18 23.04.17 тихо ()   6000 м  слаб. дождь  10/10 600 м 
[Frnb|Ns]
+2.6 +1.6 93 +3  1012.1  -0.2  738  294           
21 23.04.17 тихо ()   5000 м  слаб. дождь  10/10 600 м 
[Frnb|Ns]
+1.3 +1 98 +1  1012.2  738  296           
00 24.04.17 тихо ()   5000 м  слаб. снег{дождь}  10/10 600 м 
[Frnb|Ns]
+1 +1 100 +1  1012.4  0.2  738  296  -0.2      мокрая 
03 24.04.17 330 (СЗ) 9000 м  слаб. дождь{снег}  10/10 600 м 
[Frnb|Ns]
+3.4 +2.1 91 +4  1012.6  0.4  738  293           
06 24.04.17 240 (ЮЗ) 9000 м  слаб. дождь{снег}  10/0 средняя 
[Frnb|As op]
+4.3 +2.8 90 +5  1013.2  0.7  739  293           
09 24.04.17 230 (ЮЗ) 20000 м  {ливн. осадки}  10/10 600 м кучево-дожд. 
[Cb cap]
+4.8 +2.3 84 +6  1013.6  0.5  739  292           
12 24.04.17 тихо ()   50000 м  {ливн. осадки}  10/10 600 м 
[Sc]
+3.4 +2.9 97 +3  1014.7  0.9  740  294    +6     
15 24.04.17 тихо ()   50000 м    3/3 600 м 
[Sc]
+0.8 +0.3 96 +1  1014.2  -0.7  739  297           
18 24.04.17 тихо ()   50000 м    10/10 600 м 
[Sc]
+1 +0.7 98 +1  1013.8  -0.4  739  297           
21 24.04.17 080 (В) 20000 м    10/10 600 м 
[Sc]
+1.2 +0.4 94 +2  1012.8  -1  738  296           
00 25.04.17 360 (С) 4700 м  слаб. дождь  10/10 600 м 
[Frnb|Ns]
+2.6 +2.1 96 +2  1011.6  -1  737  294  -0.4      мокрая 
03 25.04.17 050 (СВ) 7000 м  слаб. дождь  10/10 600 м 
[Frnb|Ns]
+5.3 +2.6 83 +4  1010.6  -0.7  737  291           
06 25.04.17 060 (СВ) 4{10}  8000 м  слаб. дождь  10/10 600 м 
[Frnb|Ns]
+5.7 +5.5 99 +4  1010.1  -0.4  737  290           
09 25.04.17 060 (СВ) 2{10}  5000 м  слаб. дождь  10/10 600 м 
[Frnb|Ns]
+4.5 +3.8 95 +4  1010  -0.2  737  291           
12 25.04.17 110 (В) 50000 м  {дождь}  10/0 средняя 
[Ac As]
+3.1 +2.9 99 +4  1010.9  0.7  737  293    +6.6     
15 25.04.17 тихо ()   40000 м    10/0 средняя 
[Ac As]
+2.9 +2.6 98 +3  1010.9  737  293           
18 25.04.17 тихо ()   35000 м    10/0 средняя 
[Ac As]
+2.3 +2.3 100 +2  1010.2  -0.8  736  294           
21 25.04.17 350 (С) 20000 м    9/0 средняя 
[Ac lent]
+1 +0.5 96 +2  1009.8  -0.5  736  295           
00 26.04.17 350 (С) 20000 м    4/0 средняя, верхняя 
[Ac trans|Ci sp]
+4.3 -0.8 69 +3  1008.9  -0.6  736  292  +1        мокрая 
03 26.04.17 350 (С) 20000 м    6/6 1000 м 
[Cu hum]
+9.6 -0.8 48 +9  1008.1  -0.3  735  286           
06 26.04.17 360 (С) 20000 м    8/8 600 м кучево-дожд. 
[Cb cap]
+11.8 -3.1 35 +12  1006.5  -1.3  734  284           
09 26.04.17 020 (С) 3{10}  20000 м    8/8 600 м кучево-дожд. 
[Cb cap]
+12.6 -4.5 30 +12  1005.5  -0.9  734  283           
12 26.04.17 060 (СВ) 50000 м    6/4 600 м средняя 
[Sc diur, vesp|Ac trans]
+6.8 -1.8 54 +8  1006.2  0.1  734  289    +14       
Время (UTC), дата Ветер
(°,м/с) 
Видим.   Явления Облачность Т
(°С)
Тd
(°С)
f(%) Тe
(°С)
Pmin
(гПа)
dP
(гПа)
Po
(мм)
O2
(г/м3)
Тmin Tmax R s Состояние
почвы

Для получения пояснительной информации подведите курсор к названию столбца.

ПОГОДА в Братолюбовке - архив

Всё, что Вы хотите узнать о погоде в Братолюбовке - удобно и подробно!

Выберите нужную дату (начиная с 1 января 2015* года) и нажмите кнопку "Найти".
Будут отображены архивные сводки погоды по пункту Братолюбовка, начиная с указанной даты.


Отображать данные в формате CSV (для использования в таблицах Excel)


Внимание! Наш архив погоды предназначен исключительно для личного некоммерческого использования в познавательных целях. Если Вам необходимы официальные справки о состоянии погоды (для производственных, юридических, коммерческих и т.п. целей), обращайтесь в органы Росгидромета.

*Примечание: данная дата относится к архиву по метеостанциям СССР (Россия, СНГ, Балтия).
Архив по метеостанциям Зарубежной Европы и Азии (кроме Китая) хранится 10 дней, по другим регионам земного шара (Китай, Африка, Америка, Австралия, Океания) - 1 день.

Братолюбовка - район местоположения метеостанции


Название, широта, долгота, высота метеостанции:
Братолюбовка 50.8°ш. 129.3°д. 227 м над ур. моря [Российская Федерация]

Дополнительная информация

В oтличие oт бoльшинства пoгoдных сайтoв мы публикуем пoдрoбную метеoинфoрмацию в детальнoм прoфессиoнальнoм фoрмате.

Характеристики температуры и влажнoсти вoздуха измеряются на высoте 2 м в тени вдали oт зданий и деревьев.
Скoрoсть ветра измеряется на высoте 10 м (на урoвне рoста челoвека скoрoсть ветра ниже в 1.5-2 раза). Если метеoстанция нахoдится в гoрoде или в лесу, тo скoрoсть ветра занижена на 2-4 м/с пo сравнению с oткрытым местoм. Скoрoсть ветра над акватoриями крупных рек и oзёр, а также на вершинах хoлмoв на 2-5 м/с выше, чем в oбычных услoвиях.
Атмoсфернoе давление в разных тoчках местнoсти мoжет значительнo oтличаться oт давления на метеoстанции, в зависимoсти oт услoвий рельефа (при пoдъёме на 10 м давление пoнижается примернo на 1 мм рт.ст.).